TimeEDT,TemperatureF,Dew PointF,Humidity,Sea Level PressureIn,VisibilityMPH,Wind Direction,Wind SpeedMPH,Gust SpeedMPH,PrecipitationIn,Events,Conditions,WindDirDegrees,DateUTC
12:15 AM,60.8,50.0,68,30.21,10.0,Calm,Calm,-,N/A,,Clear,0,2013-05-15 04:15:00
12:35 AM,59.0,50.0,72,30.21,10.0,Calm,Calm,-,N/A,,Clear,0,2013-05-15 04:35:00
12:55 AM,59.0,50.0,72,30.22,10.0,Calm,Calm,-,N/A,,Clear,0,2013-05-15 04:55:00
1:15 AM,59.0,50.0,72,30.22,10.0,Calm,Calm,-,N/A,,Clear,0,2013-05-15 05:15:00
1:35 AM,55.4,50.0,82,30.21,10.0,Calm,Calm,-,N/A,,Clear,0,2013-05-15 05:35:00
1:55 AM,55.4,50.0,82,30.21,10.0,Calm,Calm,-,N/A,,Clear,0,2013-05-15 05:55:00
2:15 AM,55.4,50.0,82,30.20,10.0,Calm,Calm,-,N/A,,Clear,0,2013-05-15 06:15:00
2:35 AM,55.4,50.0,82,30.20,10.0,Calm,Calm,-,N/A,,Clear,0,2013-05-15 06:35:00
2:55 AM,55.4,50.0,82,30.19,10.0,Calm,Calm,-,N/A,,Clear,0,2013-05-15 06:55:00
3:15 AM,53.6,50.0,88,30.19,10.0,Calm,Calm,-,N/A,,Clear,0,2013-05-15 07:15:00
3:35 AM,53.6,50.0,88,30.19,10.0,Calm,Calm,-,N/A,,Clear,0,2013-05-15 07:35:00
3:55 AM,53.6,50.0,88,30.19,10.0,Calm,Calm,-,N/A,,Clear,0,2013-05-15 07:55:00
4:15 AM,53.6,50.0,88,30.19,10.0,Calm,Calm,-,N/A,,Clear,0,2013-05-15 08:15:00
4:35 AM,51.8,50.0,94,30.18,10.0,Calm,Calm,-,N/A,,Clear,0,2013-05-15 08:35:00
4:55 AM,51.8,50.0,94,30.18,10.0,Calm,Calm,-,N/A,,Clear,0,2013-05-15 08:55:00
5:15 AM,51.8,50.0,94,30.18,10.0,Calm,Calm,-,N/A,,Clear,0,2013-05-15 09:15:00
5:35 AM,51.8,50.0,94,30.19,10.0,Calm,Calm,-,N/A,,Clear,0,2013-05-15 09:35:00
5:55 AM,51.8,50.0,94,30.19,10.0,Calm,Calm,-,N/A,,Clear,0,2013-05-15 09:55:00
6:15 AM,51.8,48.2,88,30.20,10.0,Calm,Calm,-,N/A,,Clear,0,2013-05-15 10:15:00
6:35 AM,51.8,50.0,94,30.20,10.0,Calm,Calm,-,N/A,,Clear,0,2013-05-15 10:35:00
6:55 AM,51.8,50.0,94,30.21,10.0,Calm,Calm,-,N/A,,Clear,0,2013-05-15 10:55:00
7:15 AM,51.8,50.0,94,30.21,10.0,Calm,Calm,-,N/A,,Clear,0,2013-05-15 11:15:00
7:35 AM,53.6,51.8,94,30.22,10.0,Calm,Calm,-,N/A,,Clear,0,2013-05-15 11:35:00
7:55 AM,59.0,53.6,82,30.22,10.0,Calm,Calm,-,N/A,,Clear,0,2013-05-15 11:55:00
8:15 AM,60.8,55.4,82,30.22,10.0,Calm,Calm,-,N/A,,Clear,0,2013-05-15 12:15:00
8:35 AM,66.2,57.2,73,30.23,10.0,Calm,Calm,-,N/A,,Clear,0,2013-05-15 12:35:00
8:55 AM,68.0,55.4,64,30.23,10.0,Calm,Calm,-,N/A,,Clear,0,2013-05-15 12:55:00
9:15 AM,71.6,55.4,57,30.24,10.0,Calm,Calm,-,N/A,,Clear,0,2013-05-15 13:15:00
9:35 AM,73.4,55.4,53,30.24,10.0,SE,3.5,-,N/A,,Clear,140,2013-05-15 13:35:00
9:55 AM,73.4,53.6,50,30.24,10.0,Calm,Calm,-,N/A,,Clear,0,2013-05-15 13:55:00
10:15 AM,75.2,53.6,47,30.23,10.0,South,3.5,-,N/A,,Clear,180,2013-05-15 14:15:00
10:35 AM,77.0,51.8,41,30.23,10.0,WSW,4.6,-,N/A,,Clear,240,2013-05-15 14:35:00
10:55 AM,78.8,50.0,36,30.23,10.0,North,3.5,-,N/A,,Clear,10,2013-05-15 14:55:00
11:15 AM,78.8,46.4,32,30.22,10.0,Calm,Calm,-,N/A,,Clear,0,2013-05-15 15:15:00
11:35 AM,80.6,46.4,30,30.22,10.0,NNE,3.5,-,N/A,,Clear,30,2013-05-15 15:35:00
11:55 AM,80.6,48.2,32,30.22,10.0,NNE,3.5,-,N/A,,Clear,30,2013-05-15 15:55:00
12:15 PM,80.6,44.6,28,30.21,10.0,East,6.9,-,N/A,,Clear,90,2013-05-15 16:15:00
12:35 PM,82.4,46.4,28,30.21,10.0,NE,5.8,-,N/A,,Clear,50,2013-05-15 16:35:00
12:55 PM,82.4,44.6,26,30.19,10.0,NE,8.1,-,N/A,,Clear,50,2013-05-15 16:55:00
1:15 PM,82.4,42.8,25,30.19,10.0,NW,4.6,-,N/A,,Clear,320,2013-05-15 17:15:00
1:35 PM,82.4,51.8,35,30.19,10.0,WNW,6.9,-,N/A,,Clear,290,2013-05-15 17:35:00
1:55 PM,82.4,53.6,37,30.18,10.0,WNW,8.1,-,N/A,,Clear,290,2013-05-15 17:55:00
2:15 PM,80.6,53.6,39,30.17,10.0,WNW,6.9,-,N/A,,Clear,300,2013-05-15 18:15:00
2:35 PM,80.6,53.6,39,30.17,10.0,West,12.7,16.1,N/A,,Clear,270,2013-05-15 18:35:00
2:55 PM,80.6,53.6,39,30.16,10.0,West,12.7,-,N/A,,Clear,270,2013-05-15 18:55:00
3:15 PM,80.6,53.6,39,30.15,10.0,WNW,8.1,16.1,N/A,,Clear,290,2013-05-15 19:15:00
3:35 PM,80.6,53.6,39,30.14,10.0,West,8.1,-,N/A,,Clear,280,2013-05-15 19:35:00
3:55 PM,82.4,53.6,37,30.13,10.0,West,8.1,-,N/A,,Clear,270,2013-05-15 19:55:00
4:15 PM,82.4,55.4,39,30.12,10.0,West,12.7,-,N/A,,Clear,260,2013-05-15 20:15:00
4:35 PM,80.6,55.4,42,30.12,10.0,West,12.7,-,N/A,,Clear,270,2013-05-15 20:35:00
4:55 PM,80.6,55.4,42,30.11,10.0,West,9.2,-,N/A,,Clear,270,2013-05-15 20:55:00
5:15 PM,80.6,55.4,42,30.11,10.0,West,10.4,-,N/A,,Clear,270,2013-05-15 21:15:00
5:35 PM,80.6,55.4,42,30.11,10.0,West,10.4,-,N/A,,Clear,280,2013-05-15 21:35:00
5:55 PM,78.8,55.4,44,30.11,10.0,West,10.4,-,N/A,,Clear,270,2013-05-15 21:55:00
6:15 PM,78.8,55.4,44,30.10,10.0,WNW,6.9,-,N/A,,Clear,290,2013-05-15 22:15:00
6:35 PM,77.0,57.2,50,30.10,10.0,West,8.1,-,N/A,,Clear,280,2013-05-15 22:35:00
6:55 PM,77.0,57.2,50,30.09,10.0,West,10.4,-,N/A,,Clear,270,2013-05-15 22:55:00
7:15 PM,77.0,59.0,54,30.10,10.0,West,6.9,-,N/A,,Clear,280,2013-05-15 23:15:00
7:35 PM,75.2,59.0,57,30.09,10.0,West,6.9,-,N/A,,Clear,280,2013-05-15 23:35:00
7:55 PM,73.4,59.0,61,30.09,10.0,West,6.9,-,N/A,,Clear,260,2013-05-15 23:55:00
8:15 PM,71.6,59.0,64,30.09,10.0,West,4.6,-,N/A,,Clear,280,2013-05-16 00:15:00
8:35 PM,71.6,60.8,69,30.09,10.0,Calm,Calm,-,N/A,,Clear,0,2013-05-16 00:35:00
8:55 PM,71.6,60.8,69,30.10,10.0,Calm,Calm,-,N/A,,Clear,0,2013-05-16 00:55:00
9:15 PM,71.6,60.8,69,30.10,10.0,Calm,Calm,-,N/A,,Clear,0,2013-05-16 01:15:00
9:35 PM,69.8,60.8,73,30.10,10.0,Calm,Calm,-,N/A,,Clear,0,2013-05-16 01:35:00
9:55 PM,68.0,60.8,78,30.11,10.0,Calm,Calm,-,N/A,,Clear,0,2013-05-16 01:55:00
10:15 PM,66.2,59.0,78,30.12,10.0,Calm,Calm,-,N/A,,Clear,0,2013-05-16 02:15:00
10:35 PM,64.4,59.0,83,30.13,10.0,Calm,Calm,-,N/A,,Clear,0,2013-05-16 02:35:00
10:55 PM,64.4,59.0,83,30.13,10.0,Calm,Calm,-,N/A,,Clear,0,2013-05-16 02:55:00
11:15 PM,62.6,59.0,88,30.13,10.0,Calm,Calm,-,N/A,,Clear,0,2013-05-16 03:15:00
11:35 PM,62.6,59.0,88,30.13,10.0,Calm,Calm,-,N/A,,Clear,0,2013-05-16 03:35:00
11:55 PM,62.6,59.0,88,30.12,10.0,Calm,Calm,-,N/A,,Clear,0,2013-05-16 03:55:00